INMARSAT 5-F3           
1 40882U 15042A   19261.44996774  .00000047  00000-0  00000+0 0  9993
2 40882   0.0153 184.5441 0000121  61.2102  92.9245  1.00271444 14847
BREEZE-M R/B            
1 40883U 15042B   19260.34712773 -.00000155  00000-0  00000+0 0  9998
2 40883  31.3806   0.3650 7856959  72.6097 352.7178  1.10222206 16321
BREEZE-M DEB [TANK]     
1 40884U 15042C   19259.78706815  .00000193  00000-0  59691-4 0  9991
2 40884  50.7472 114.9116 5178152 341.7878   5.0707  5.27125867 77939